Вернуться в каталог

FENGYUN 1C DEB

АктивенSSO
NORAD 30299·DEBRIS·🇨🇳 China

Запущен May 10, 1999 с Taiyuan Satellite Launch Center

Loading…

Ближайшие Пролёты (ближайшие 24 часа)

TLE

СвежийSource: Space-Track

Эпоха: Sep 14, 2026, 03:42 UTC

1 30299U 99025ZL  26257.15422709  .00001482  00000-0  84153-3 0  9999
2 30299  99.0804 336.3826 0101363 317.8448  70.4310 14.09009038  1498

Отслеживайте FENGYUN 1C DEB в реальном времени с AllMySat

Download on the App Store